Humidity-temperature Sensor

Selected Measurement Type: Relative Humidity

 
Relative Humidity [%]     6 entries per hour
Showing data from 1/26/2023 (00:00:00 Z) to 1/25/2023 (00:01:00 Z)
Previous Next [ Day | 3-Days | 7-Days ]
First Last
Prev [ Day | 3-Days | 7-Days ] Next
First Last

Start Time:     :
End Time:     :     
Time (in GMT) :00 :50 :40 :30 :20 :10
Previous Next [ Day | 3-Days | 7-Days ]
First Last
Prev [ Day | 3-Days | 7-Days ] Next
First Last


123 => good data
MM => data is determined as missing
-- => data not received/configured
Back to Top Back to Top
1/26/2023 00:00 to 23:10 85.39 85.23 85.31 85.39 85.62 85.54
1/25/2023 23:00 to 22:10 85.27 85.44 85.89 85.35 85.27 85.85
1/25/2023 22:00 to 21:10 85.58 85.64 85.76 86.03 86.11 86.28
1/25/2023 21:00 to 20:10 85.97 85.99 85.81 85.72 85.50 85.64
1/25/2023 20:00 to 19:10 85.85 85.95 86.20 86.53 86.32 86.07
1/25/2023 19:00 to 18:10 85.81 86.01 85.83 85.85 85.70 85.44
1/25/2023 18:00 to 17:10 85.52 85.35 85.48 85.89 86.50 86.44
1/25/2023 17:00 to 16:10 86.59 86.57 86.96 86.85 86.50 86.28
1/25/2023 16:00 to 15:10 86.11 85.68 85.39 85.46 85.89 86.38
1/25/2023 15:00 to 14:10 87.29 87.55 87.92 87.86 87.70 87.59
1/25/2023 14:00 to 13:10 87.82 88.05 87.98 87.92 88.05 88.27
1/25/2023 13:00 to 12:10 88.44 88.54 88.52 88.56 88.70 88.85
1/25/2023 12:00 to 11:10 88.72 88.87 88.77 88.95 89.07 89.20
1/25/2023 11:00 to 10:10 89.40 89.48 89.55 89.48 89.65 89.69
1/25/2023 10:00 to 9:10 89.53 89.32 89.24 89.24 88.87 88.68
1/25/2023 09:00 to 8:10 88.70 88.68 88.42 88.42 88.17 88.07
1/25/2023 08:00 to 7:10 87.72 87.72 87.68 87.84 88.00 87.78
1/25/2023 07:00 to 6:10 87.76 87.88 88.07 88.19 88.00 87.68
1/25/2023 06:00 to 5:10 87.72 87.63 87.86 87.88 87.59 88.03
1/25/2023 05:00 to 4:10 88.11 88.44 88.44 88.48 88.79 89.05
1/25/2023 04:00 to 3:10 89.22 89.53 89.61 89.36 89.24 89.13
1/25/2023 03:00 to 2:10 88.66 88.56 88.46 88.62 88.46 88.64
1/25/2023 02:00 to 1:10 88.52 88.46 88.13 87.70 87.10 86.73
1/25/2023 01:00 to 0:10 86.75 87.20 87.14 87.04 86.87 86.65